LEMUR-2-ZUPANSKI (43695 NORAD) Tracking and Keplerian Element Data

This shows tracking and keplerian element data for the satellite.

Feedback or suggestion? Click here.




ElementValue
Catalog43695
NameLEMUR-2-ZUPANSKI
Epoch Orbit26695
Epoch Day238.58482233
Epoch Year2023
RAAN16.3534
Inclination85.0101
Eccentricity0.0007987
Argument of Perigee281.4131
Mean Anonmoly78.6241
Mean Motion15.7313966
Decay Rate0.00198137
L11 43695U 18088F 23238.58482233 .00198137 00000+0 14163-2 0 9990
L22 43695 85.0101 16.3534 0007987 281.4131 78.6241 15.73139660266954



Live tracking and technical data element details for LEMUR-2-ZUPANSKI (NORAD 43695). LEMUR-2-ZUPANSKI can be tracked NOW for your location showing map with azimuth and elevation plus other details from your city location.







IsCatalogInMostPopularTable: catalog: 43695, numindb: 305
Update: records affected: 1



GetName: 43695 LEMUR-2-ZUPANSKI

Hit Count: updated at: Sat, 24 May 2025 16:53:27 GMT